Home > Weather > Albany > Past weeks

Flag for Australia Weather for the Past 2 Weeks in Albany, Western Australia, Australia

Now
104 °F

Sunny.


Feels Like: 98 °F
Forecast: 66 / 90 °F
Wind: 14 mph from Northeast

Location: Belmont Perth Airport

Current Time: Feb 8, 2016 at 12:42:13 PM

Latest Report: Feb 8, 2016 at 12:00 PM


Visibility: 10 mi

Pressure: 29.95 "Hg

Humidity: 9%

Dew point: 36 °F

Location of AlbanyLocation

Historic Weather in Albany — Graph

°F

Albany Temperature Yesterday

Maximum temperature yesterday: 102 °F (at 1:30 PM)
Minimum temperature yesterday: 68 °F (at 5:00 AM)
Average temperature yesterday: 86 °F

High & Low Weather Summary for the Past Weeks

 TemperatureHumidityPressure
High102 °F (Feb 7, 1:30 PM)94% (Jan 30, 3:48 PM)30.12 "Hg (Jan 30, 3:48 PM)
Low45 °F (Feb 1, 6:00 AM)9% (Feb 7, 3:30 PM)29.56 "Hg (Jan 31, 2:00 AM)
Average78 °F46%29.89 "Hg
* Reported Jan 24 11:00 AM — Feb 8 11:00 AM, Albany, Weather by CustomWeather, © 2016

Note: Actual official high and low records may vary slightly from our data, if they occured in-between our weather recording intervals... More about our weather records

Advertising

Albany Weather History for the Previous 24 Hours

 ConditionsComfort  
Time TempWeatherWind HumidityBarometerVisibility
11:00 AM
Mon, Feb 8
102 °FSunny.16 mph10%29.98 "Hg10 mi
10:30 AM99 °FSunny.18 mph10%29.98 "Hg10 mi
10:00 AM97 °FSunny.18 mph12%29.98 "Hg10 mi
9:00 AM95 °FSunny.17 mph11%30.01 "Hg10 mi
8:30 AM91 °FSunny.10 mph16%30.01 "Hg10 mi
8:00 AM86 °FSunny.12 mph20%30.01 "Hg10 mi
7:30 AM82 °FSunny.13 mph21%30.01 "Hg10 mi
7:00 AM81 °FSunny.16 mph28%29.98 "Hg10 mi
6:30 AM79 °FSunny.16 mph30%29.98 "Hg10 mi
6:00 AM79 °FSunny.16 mph28%29.98 "Hg10 mi
5:30 AM79 °FSunny.16 mph28%29.98 "Hg10 mi
5:00 AM79 °FSunny.16 mph28%29.95 "Hg10 mi
4:30 AM79 °FClear.20 mph28%29.95 "Hg10 mi
4:00 AM81 °FClear.17 mph26%29.95 "Hg10 mi
3:30 AM79 °FClear.16 mph28%29.95 "Hg10 mi
3:00 AM81 °FClear.14 mph26%29.95 "Hg10 mi
2:30 AM79 °FClear.6 mph30%29.95 "Hg10 mi
2:00 AM77 °FClear.7 mph34%29.95 "Hg10 mi
1:30 AM72 °FClear.8 mph44%29.95 "Hg10 mi
1:00 AM70 °FClear.5 mph53%29.95 "Hg10 mi
12:30 AM72 °FClear.2 mph47%29.95 "Hg10 mi
12:00 AM73 °FClear.8 mph44%29.95 "Hg10 mi
11:30 PM
Sun, Feb 7
75 °FClear.8 mph41%29.98 "Hg10 mi
11:00 PM81 °FClear.8 mph32%29.98 "Hg10 mi
10:30 PM84 °FClear.6 mph25%29.98 "Hg10 mi
10:00 PM81 °FClear.6 mph37%29.98 "Hg10 mi
9:30 PM84 °FClear.10 mph31%29.98 "Hg10 mi
9:00 PM88 °FClear.13 mph27%29.98 "Hg10 mi
8:30 PM90 °FClear.14 mph24%29.98 "Hg10 mi
8:00 PM90 °FClear.17 mph24%29.95 "Hg10 mi
7:30 PM91 °FClear.15 mph23%29.95 "Hg10 mi
7:00 PM93 °FClear.18 mph19%29.95 "Hg10 mi
6:30 PM95 °FClear.17 mph15%29.92 "Hg10 mi
6:00 PM97 °FSunny.17 mph16%29.92 "Hg10 mi
5:30 PM99 °FSunny.18 mph14%29.92 "Hg10 mi
5:00 PM99 °FSunny.17 mph15%29.89 "Hg10 mi
4:30 PM102 °FSunny.13 mph15%29.89 "Hg10 mi
4:00 PM102 °FSunny.9 mph9%29.89 "Hg10 mi
3:30 PM102 °FSunny.9 mph9%29.89 "Hg10 mi
3:00 PM102 °FSunny.7 mph10%29.92 "Hg10 mi
2:00 PM100 °FSunny.8 mph13%29.92 "Hg10 mi
1:30 PM102 °FSunny.7 mph12%29.92 "Hg10 mi
1:00 PM100 °FSunny.12 mph14%29.95 "Hg10 mi
12:30 PM100 °FSunny.12 mph16%29.95 "Hg10 mi
12:00 PM97 °FSunny.13 mph18%29.98 "Hg10 mi
Weather by CustomWeather, © 2016

See weather overviewHow to use our weather pages